星链-5078 (STARLINK-5078 )

导读

STARLINK-5078是美国太空探索技术公司发射的Starlink(星链)互联网卫星项目的一颗卫星,于北京时间2022年12月28日8点成功发射入轨,属于星链低轨宽带互联网星座组网卫星,为全球提供高速互联网接入服务,进一步扩大了星链星座的覆盖范围与服务能力,推进星链低轨星座的部署进程。

基本信息
目录编号:
54857
目录名称:
STARLINK-5078
国际标识:
2022-177AP
轨道中心:
EARTH
卫星名称:
星链-5078
卫星全名:
星链-5078 (STARLINK-5078 )
卫星状态:
在轨 (已飞行1354 天)
发射日期:
2022-12-28 UTC
国别 :
美国 (US)
星等 :
--
该卫星已列入 空间交会检测服务 Space Conjunction Data Service (SCDS) ,当前飞行风险评估等级: 高风险
轨道信息
数据来源 国际轨道数据 AOE轨道数据
星历时间 2026-09-12T07:44:42+0800
11小时前
查看轨道信息
2026-09-07T00:00:00+0800
5天前
查看轨道信息
半长轴 6861.212km 6861.195km
偏心率 0.0001324 0.0001017
轨道倾角 43.002° 43.000°
近地点辐角 271.668° 246.519°
升交点赤经 149.383° 179.447°
平近点角 88.402° 328.239°
近地点 482.166km 482.36km
远地点 483.984km 483.756km
周期 94.267分钟 94.267分钟
每日圈数 15.275714 15.275772
详细信息
固有亮度:
5
最大亮度:
2.5
卫星平台:
Starlink v1.5
覆盖范围:
全球
运营商:
太空探索技术公司
运营商所在国:
美国
制造商(研发单位):
太空探索技术公司
制造商所在国:
美国
使用方式:
暂无
卫星简介
星链(Starlink)计划是由太空探索技术公司(SpaceX)提出的一个巨型低轨卫星互联网星座项目,计划在2019年至2024年间在太空搭建由约1.2万颗卫星组成的“星链”网络,其中1584颗将部署在地球上空550千米处的近地轨道,并从2020年开始工作。该卫星仍在工作。
2D轨道图
3D轨道图
轨道高度分析图
轨道倾角分析图
轨道综合分析图
查看轨道综合分析图
交会数据列表
事件ID 空间交会对象 最接近时刻(TCA) 交会距离 交会风险概率(CRP) 交会风险指数(CRI) 操作
CDM_260913-164605-485705-805521
2026-09-13T
16:46:18+0000
0.584 km
远距离
9.272573E-5 中风险 0.74
CDM_260913-182005-485705-805521
2026-09-13T
18:20:27+0000
0.599 km
远距离
8.659181E-5 中风险 0.74
CDM_260913-151205-485705-805521
2026-09-13T
15:12:09+0000
0.617 km
远距离
7.980849E-5 中风险 0.73
CDM_260913-195405-485705-805521
2026-09-13T
19:54:37+0000
0.639 km
远距离
7.212045E-5 中风险 0.72
CDM_260913-212805-485705-805521
2026-09-13T
21:28:46+0000
0.686 km
远距离
5.858506E-5 中风险 0.7
CDM_260913-133705-485705-805521
2026-09-13T
13:37:59+0000
0.710 km
远距离
5.262083E-5 中风险 0.69
CDM_260914-100205-485705-805521
2026-09-14T
10:02:01+0000
0.724 km
远距离
4.952191E-5 中风险 0.69
CDM_260913-230205-485705-805521
2026-09-13T
23:02:55+0000
0.727 km
远距离
4.891975E-5 中风险 0.69
CDM_260914-082705-485705-805521
2026-09-14T
08:27:52+0000
0.731 km
远距离
4.81406E-5 中风险 0.69
CDM_260914-113605-485705-805521
2026-09-14T
11:36:10+0000
0.743 km
远距离
4.565285E-5 中风险 0.68
与全量物体交会距离演化趋势
与全量物体交会风险概率演化趋势